Home   Weather   New York   Past weeks

Flag for USA Past Weather in New York, New York, USA — Yesterday and Last 2 Weeks

Now
67 °F

Overcast.


Feels Like: 67 °F
Forecast: 59 / 69 °F
Wind: 3 mph from North

Location: New York City - Central Park

Current Time: May 24, 2017 at 5:49:14 pm

Latest Report: May 24, 2017 at 4:51 pm


Visibility: 10 mi

Pressure: 29.78 "Hg

Humidity: 53%

Dew Point: 49 °F

Location of New YorkLocation

Past Weather in New York — Graph

°F

New York Temperature Yesterday

Maximum temperature yesterday: 68 °F (at 2:51 pm)
Minimum temperature yesterday: 57 °F (at 5:51 am)
Average temperature yesterday: 62 °F

High & Low Weather Summary for the Past Weeks

 TemperatureHumidityPressure
High92 °F (May 18, 12:51 pm)100% (May 22, 2:07 pm)30.38 "Hg (May 22, 2:07 pm)
Low45 °F (May 13, 8:51 pm)27% (May 21, 1:51 pm)29.57 "Hg (May 14, 4:51 pm)
Average62 °F64%29.95 "Hg
* Reported May 9 3:51 pm — May 24 3:51 pm, New York. Weather by CustomWeather, © 2017

Note: Actual official high and low records may vary slightly from our data, if they occured in-between our weather recording intervals... More about our weather records

Advertising

New York Weather History for the Previous 24 Hours

Scroll right to see more
 ConditionsComfort  
Time TempWeatherWind HumidityBarometerVisibility
3:51 pm
Wed, May 24
67 °FOvercast.6 mph51%29.76 "Hg10 mi
2:51 pm67 °FOvercast.10 mph49%29.75 "Hg10 mi
1:51 pm67 °FBroken clouds.7 mph55%29.75 "Hg10 mi
12:51 pm66 °FOvercast.12 mph59%29.76 "Hg10 mi
11:51 am67 °FPartly sunny.10 mph61%29.75 "Hg10 mi
10:51 am63 °FOvercast.3 mph70%29.77 "Hg10 mi
9:51 am61 °FOvercast.6 mph75%29.75 "Hg10 mi
8:51 am59 °FOvercast.5 mph87%29.75 "Hg10 mi
7:51 am58 °FOvercast.3 mph90%29.74 "Hg9 mi
6:51 am57 °FLight rain. Overcast.3 mph93%29.73 "Hg8 mi
5:51 am56 °FOvercast.3 mph93%29.73 "Hg8 mi
4:51 am59 °FLight rain. Overcast.3 mph72%29.72 "Hg10 mi
3:51 am60 °FPassing clouds.5 mph67%29.74 "Hg10 mi
2:51 am60 °FClear.No wind72%29.75 "Hg10 mi
1:51 am60 °FPassing clouds.3 mph65%29.74 "Hg10 mi
12:51 am60 °FClear.No wind69%29.76 "Hg10 mi
11:51 pm
Tue, May 23
62 °FClear.No wind65%29.78 "Hg10 mi
10:51 pm62 °FClear.No wind60%29.82 "Hg10 mi
9:51 pm63 °FClear.No wind58%29.83 "Hg10 mi
8:51 pm64 °FClear.No wind56%29.82 "Hg10 mi
7:51 pm65 °FSunny.No wind54%29.83 "Hg10 mi
6:51 pm67 °FSunny.No wind49%29.83 "Hg10 mi
5:51 pm68 °FSunny.No wind45%29.83 "Hg10 mi
Weather by CustomWeather, © 2017

See weather overviewHow to use our weather pages